Corpus Christi, TX

2:11 AM CST on February 24, 2017 (GMT -0600)
Corpus Christi International

Weather History for KCRP - September, 2013

Change the Weather History Date:

Friday, September 27, 2013

  Actual Average Record
Temperature  
Mean Temperature 88 °F 79 °F  
Max Temperature 95 °F 88 °F 99 °F (2011)
Min Temperature 80 °F 70 °F 52 °F (2000)
Degree Days  
Heating Degree Days 0 0  
Month to date heating degree days 0 0  
Since 1 July heating degree days 0 0  
Cooling Degree Days 23 14  
Month to date cooling degree days 520 442  
Year to date cooling degree days 3533 3003  
Growing Degree Days 38 (Base 50)    
Moisture  
Dew Point 76 °F    
Average Humidity 69    
Maximum Humidity 85    
Minimum Humidity 52    
Precipitation  
Precipitation T in 0.14 in 1.85 in (1943)
Month to date precipitation 6.14 4.55  
Year to date precipitation 17.15 23.89  
Snow  
Snow 0.00 in - - ()
Month to date snowfall 0.0  
Since 1 July snowfall 0.0  
Since 1 September snowfall 0.0  
Snow Depth 0.00 in    
Sea Level Pressure  
Sea Level Pressure 29.85 in    
Wind  
Wind Speed 14 mph (SE)    
Max Wind Speed 23 mph    
Max Gust Speed 30 mph    
Visibility 10 miles    
Events      
T = Trace of Precipitation, MM = Missing Value Source: NWS Daily Summary

Daily Weather History Graph

Daily Weather History Graph

Search for Another Location

Airport or City:

Trip Planner

Search our weather history database for the weather conditions in past years. The results will help you decide how hot, cold, wet, or windy it might be!

Date:

Astronomy

Sep. 27, 2013 Rise Set
Actual Time 7:20 AM CDT 7:20 PM CDT
Civil Twilight 6:57 AM CDT 7:43 PM CDT
Nautical Twilight 6:30 AM CDT 8:10 PM CDT
Astronomical Twilight 6:03 AM CDT 8:38 PM CDT
Moon 12:45 AM CDT (9/27) 2:32 PM CDT (9/27)
Length of Visible Light 12h 46m
Length of Day
11h 59m
Last Quarter, 45% of the Moon is Illuminated
Sep 27
Last Quarter
Oct 4
New
Oct 11
First Quarter
Oct 18
Full
Oct 26
Last Quarter

Hourly Weather History & Observations

Time (CDT) Temp. Heat Index Dew Point Humidity Pressure Visibility Wind Dir Wind Speed Gust Speed Precip Events Conditions
12:51 AM 82.0 °F 87.9 °F 73.9 °F 76% 29.86 in 10.0 mi SE 8.1 mph - N/A   Partly Cloudy
1:51 AM 81.0 °F 86.2 °F 73.9 °F 79% 29.86 in 10.0 mi SE 8.1 mph - N/A   Partly Cloudy
2:51 AM 81.0 °F 86.7 °F 75.0 °F 82% 29.86 in 10.0 mi SSE 6.9 mph - N/A   Partly Cloudy
3:51 AM 80.1 °F 85.1 °F 75.0 °F 85% 29.84 in 10.0 mi SE 5.8 mph - N/A   Partly Cloudy
4:51 AM 80.1 °F 85.1 °F 75.0 °F 85% 29.83 in 10.0 mi SE 5.8 mph - N/A   Partly Cloudy
5:51 AM 80.1 °F 85.1 °F 75.0 °F 85% 29.83 in 10.0 mi ESE 5.8 mph - N/A   Partly Cloudy
6:51 AM 81.0 °F 87.3 °F 75.9 °F 85% 29.85 in 10.0 mi SE 6.9 mph - N/A   Partly Cloudy
7:51 AM 82.0 °F 90.2 °F 77.0 °F 85% 29.86 in 10.0 mi SE 6.9 mph - N/A   Scattered Clouds
8:51 AM 84.9 °F 96.6 °F 78.1 °F 80% 29.87 in 10.0 mi SE 11.5 mph - N/A   Scattered Clouds
9:51 AM 88.0 °F 100.2 °F 77.0 °F 70% 29.88 in 10.0 mi SE 16.1 mph - N/A   Scattered Clouds
10:51 AM 89.1 °F 100.2 °F 75.9 °F 65% 29.88 in 10.0 mi SSE 18.4 mph - N/A   Mostly Cloudy
11:51 AM 93.0 °F 104.6 °F 75.0 °F 56% 29.88 in 10.0 mi SSE 19.6 mph 25.3 mph N/A   Scattered Clouds
12:51 PM 93.9 °F 104.0 °F 73.9 °F 52% 29.88 in 10.0 mi SSE 18.4 mph 26.5 mph N/A   Scattered Clouds
1:51 PM 91.9 °F 101.3 °F 73.9 °F 55% 29.86 in 10.0 mi SSE 17.3 mph 25.3 mph N/A   Mostly Cloudy
2:51 PM 93.0 °F 105.3 °F 75.9 °F 57% 29.82 in 10.0 mi SSE 19.6 mph - N/A   Scattered Clouds
3:51 PM 91.9 °F 103.9 °F 75.9 °F 59% 29.81 in 10.0 mi SE 20.7 mph 27.6 mph N/A   Scattered Clouds
4:51 PM 91.9 °F 103.9 °F 75.9 °F 59% 29.81 in 10.0 mi SE 18.4 mph 26.5 mph N/A   Mostly Cloudy
5:51 PM 90.0 °F 101.3 °F 75.9 °F 63% 29.81 in 10.0 mi ESE 20.7 mph 25.3 mph N/A   Scattered Clouds
6:51 PM 87.1 °F 97.3 °F 75.9 °F 69% 29.81 in 10.0 mi SE 19.6 mph - N/A   Scattered Clouds
7:51 PM 86.0 °F 96.9 °F 77.0 °F 74% 29.82 in 10.0 mi SE 15.0 mph - N/A   Scattered Clouds
8:51 PM 84.9 °F 95.3 °F 77.0 °F 77% 29.84 in 10.0 mi SE 17.3 mph - N/A   Partly Cloudy
9:51 PM 84.9 °F 95.3 °F 77.0 °F 77% 29.86 in 10.0 mi SE 16.1 mph 24.2 mph N/A   Partly Cloudy
10:51 PM 84.0 °F 94.8 °F 78.1 °F 82% 29.87 in 10.0 mi SE 11.5 mph - N/A   Partly Cloudy
11:51 PM 84.0 °F 94.8 °F 78.1 °F 82% 29.87 in 10.0 mi SE 12.7 mph - N/A   Mostly Cloudy